C4472 KLNN-KCLE

Flight info

Callsign C4472
Flight time 0h 24m
Altitude 3000
Route RADAR
Aircraft

Departure

Time 2026-04-26 01:42
Airport Lake County Executive Airport (KLNN)

Arrival

Time 2026-04-26 02:07
Airport Cleveland Hopkins International Airport (KCLE)
Time Latitude Longitude Altitude Speed Heading
2026-04-26 01:42 41.65094 -81.49135 2971 ft 123 kts 262°
2026-04-26 01:42 41.64843 -81.50240 2971 ft 123 kts 262°
2026-04-26 01:42 41.64599 -81.51338 2983 ft 123 kts 262°
2026-04-26 01:43 41.64354 -81.52435 2993 ft 123 kts 262°
2026-04-26 01:43 41.64102 -81.53527 2995 ft 123 kts 262°
2026-04-26 01:43 41.63850 -81.54611 2997 ft 122 kts 262°
2026-04-26 01:43 41.63605 -81.55689 2998 ft 121 kts 262°
2026-04-26 01:44 41.63360 -81.56777 3000 ft 123 kts 262°
2026-04-26 01:44 41.63117 -81.57867 3000 ft 122 kts 262°
2026-04-26 01:44 41.62868 -81.58948 3000 ft 122 kts 262°
2026-04-26 01:44 41.62614 -81.60026 3000 ft 121 kts 262°
2026-04-26 01:45 41.62356 -81.61132 2994 ft 138 kts 236°
2026-04-26 01:45 41.62047 -81.62300 2999 ft 130 kts 236°
2026-04-26 01:45 41.61727 -81.63456 2998 ft 133 kts 239°
2026-04-26 01:45 41.61241 -81.64573 2999 ft 139 kts 233°
2026-04-26 01:46 41.60774 -81.65671 2991 ft 134 kts 236°
2026-04-26 01:46 41.60369 -81.66767 3002 ft 131 kts 231°
2026-04-26 01:46 41.60005 -81.67889 3001 ft 132 kts 234°
2026-04-26 01:46 41.59678 -81.69029 3001 ft 131 kts 237°
2026-04-26 01:47 41.59391 -81.70182 3002 ft 131 kts 239°
2026-04-26 01:47 41.59142 -81.71346 3000 ft 131 kts 240°
2026-04-26 01:47 41.58912 -81.72524 3000 ft 131 kts 240°
2026-04-26 01:47 41.58617 -81.73747 2991 ft 147 kts 238°
2026-04-26 01:48 41.58276 -81.74990 2998 ft 140 kts 235°
2026-04-26 01:48 41.57977 -81.76209 3001 ft 136 kts 235°
2026-04-26 01:48 41.57682 -81.77408 2998 ft 142 kts 208°
2026-04-26 01:48 41.57215 -81.78629 3000 ft 144 kts 223°
2026-04-26 01:49 41.56760 -81.79798 3002 ft 140 kts 222°
2026-04-26 01:49 41.56313 -81.80947 3000 ft 140 kts 220°
2026-04-26 01:49 41.55847 -81.82078 3001 ft 140 kts 218°
2026-04-26 01:49 41.55353 -81.83198 3002 ft 140 kts 218°
2026-04-26 01:50 41.54844 -81.84307 2999 ft 141 kts 215°
2026-04-26 01:50 41.54317 -81.85402 3002 ft 140 kts 219°
2026-04-26 01:50 41.53806 -81.86497 3002 ft 138 kts 219°
2026-04-26 01:50 41.53317 -81.87595 3002 ft 137 kts 219°
2026-04-26 01:51 41.52837 -81.88690 3001 ft 137 kts 219°
2026-04-26 01:51 41.52353 -81.89792 3002 ft 139 kts 218°
2026-04-26 01:51 41.51862 -81.90903 2998 ft 138 kts 219°
2026-04-26 01:51 41.51381 -81.92008 2999 ft 137 kts 219°
2026-04-26 01:52 41.50899 -81.93115 3000 ft 138 kts 219°
2026-04-26 01:52 41.50422 -81.94216 3000 ft 137 kts 220°
2026-04-26 01:52 41.49948 -81.95318 3000 ft 138 kts 220°
2026-04-26 01:52 41.49468 -81.96423 3002 ft 137 kts 220°
2026-04-26 01:53 41.48986 -81.97532 2998 ft 141 kts 219°
2026-04-26 01:53 41.48493 -81.98648 3001 ft 139 kts 219°
2026-04-26 01:53 41.47998 -81.99764 2992 ft 140 kts 220°
2026-04-26 01:53 41.47512 -82.00879 2993 ft 138 kts 219°
2026-04-26 01:54 41.47026 -82.01990 2994 ft 139 kts 219°
2026-04-26 01:54 41.46533 -82.03108 2992 ft 139 kts 220°
2026-04-26 01:54 41.46049 -82.04215 2993 ft 138 kts 220°
2026-04-26 01:54 41.45567 -82.05321 3008 ft 138 kts 221°
2026-04-26 01:55 41.45248 -82.06058 3009 ft 139 kts 221°
2026-04-26 01:55 41.44769 -82.07174 3009 ft 138 kts 221°
2026-04-26 01:55 41.44296 -82.08293 3009 ft 138 kts 221°
2026-04-26 01:55 41.43837 -82.09414 3010 ft 137 kts 223°
2026-04-26 01:56 41.43391 -82.10531 3012 ft 137 kts 223°
2026-04-26 01:56 41.42945 -82.11659 3010 ft 137 kts 223°
2026-04-26 01:56 41.42501 -82.12795 3010 ft 138 kts 223°
2026-04-26 01:56 41.42053 -82.13940 3008 ft 143 kts 195°
2026-04-26 01:57 41.41615 -82.14494 3056 ft 47 kts 146°
2026-04-26 01:57 41.41135 -82.14152 3056 ft 109 kts 141°
2026-04-26 01:57 41.40429 -82.13592 3017 ft 116 kts 141°
2026-04-26 01:57 41.39719 -82.13028 3013 ft 119 kts 141°
2026-04-26 01:58 41.39012 -82.12464 3014 ft 118 kts 141°
2026-04-26 01:58 41.38302 -82.11914 3011 ft 117 kts 141°
2026-04-26 01:58 41.37595 -82.11375 3011 ft 118 kts 141°
2026-04-26 01:58 41.36885 -82.10834 3011 ft 118 kts 141°
2026-04-26 01:59 41.36175 -82.10291 3011 ft 118 kts 141°
2026-04-26 01:59 41.35469 -82.09735 3010 ft 118 kts 141°
2026-04-26 01:59 41.34763 -82.09172 3010 ft 118 kts 141°
2026-04-26 01:59 41.34060 -82.08612 3010 ft 120 kts 141°
2026-04-26 02:00 41.33341 -82.08052 3011 ft 120 kts 141°
2026-04-26 02:00 41.32618 -82.07501 3010 ft 119 kts 141°
2026-04-26 02:00 41.31871 -82.06949 3007 ft 133 kts 111°
2026-04-26 02:00 41.31270 -82.06230 3002 ft 113 kts 90°
2026-04-26 02:01 41.30841 -82.05301 3007 ft 118 kts 83°
2026-04-26 02:01 41.30418 -82.04339 3006 ft 120 kts 83°
2026-04-26 02:01 41.30040 -82.03365 3029 ft 101 kts 55°
2026-04-26 02:01 41.30002 -82.02503 3274 ft 77 kts 39°
2026-04-26 02:02 41.30551 -82.02054 3247 ft 108 kts 39°
2026-04-26 02:02 41.31194 -82.01459 3078 ft 111 kts 57°
2026-04-26 02:02 41.31686 -82.00654 2985 ft 113 kts 54°
2026-04-26 02:02 41.32170 -81.99824 2974 ft 116 kts 54°
2026-04-26 02:03 41.32628 -81.98886 2779 ft 126 kts 54°
2026-04-26 02:03 41.33195 -81.98024 2687 ft 128 kts 38°
2026-04-26 02:03 41.33878 -81.97239 2830 ft 129 kts 52°
2026-04-26 02:03 41.34503 -81.96334 2569 ft 139 kts 55°
2026-04-26 02:04 41.35087 -81.95291 2108 ft 143 kts 57°
2026-04-26 02:04 41.35656 -81.94267 1723 ft 128 kts 57°
2026-04-26 02:04 41.36108 -81.93484 2048 ft 90 kts 50°
2026-04-26 02:04 41.36473 -81.92855 2020 ft 84 kts 50°
2026-04-26 02:05 41.36892 -81.92231 1759 ft 97 kts 50°
2026-04-26 02:05 41.37349 -81.91528 1597 ft 101 kts 51°
2026-04-26 02:05 41.37754 -81.90885 1567 ft 82 kts 51°
2026-04-26 02:05 41.38106 -81.90319 1425 ft 77 kts 52°
2026-04-26 02:06 41.38417 -81.89799 1334 ft 69 kts 52°
2026-04-26 02:06 41.38748 -81.89290 1207 ft 77 kts 47°
2026-04-26 02:06 41.39095 -81.88754 1082 ft 72 kts 50°
2026-04-26 02:06 41.39391 -81.88277 981 ft 62 kts 47°
2026-04-26 02:07 41.39642 -81.87887 934 ft 51 kts 46°
2026-04-26 02:07 41.39847 -81.87568 845 ft 37 kts 44°
2026-04-26 02:07 41.39973 -81.87359 811 ft 19 kts 44°
2026-04-26 02:07 41.40005 -81.87315 792 ft 1 kts 49°
2026-04-26 02:08 41.39991 -81.87293 792 ft 8 kts 137°
2026-04-26 02:08 41.39945 -81.87263 791 ft 9 kts 130°
2026-04-26 02:08 41.39940 -81.87207 791 ft 3 kts 59°
2026-04-26 02:08 41.39926 -81.87167 812 ft 15 kts 96°
2026-04-26 02:09 41.39906 -81.86956 837 ft 27 kts 84°
2026-04-26 02:09 41.39889 -81.86567 880 ft 64 kts 84°
2026-04-26 02:09 41.39891 -81.86019 898 ft 44 kts 83°
2026-04-26 02:09 41.39921 -81.85669 941 ft 33 kts 81°
2026-04-26 02:10 41.39949 -81.85386 917 ft 31 kts 80°
2026-04-26 02:10 41.39984 -81.85085 911 ft 37 kts 79°
2026-04-26 02:10 41.40018 -81.84808 868 ft 14 kts 78°
2026-04-26 02:10 41.40024 -81.84684 847 ft 13 kts 79°
2026-04-26 02:11 41.40031 -81.84566 833 ft 13 kts 78°
2026-04-26 02:11 41.40053 -81.84450 852 ft 21 kts 64°
2026-04-26 02:11 41.40222 -81.84443 838 ft 14 kts 49°
2026-04-26 02:11 41.40248 -81.84437 791 ft 2 kts 46°
2026-04-26 02:12 41.40250 -81.84435 791 ft 0 kts 42°